KB1RMA-13 Weather Reports


time (UTC)temp
C
wind
direction
speed
KPH
gust
KPH
rain 1hr
cm
rain 24hr
cm
rain mn
cm
humidity
%
barometer
mb
20260507232548 15 317 6.4 14.5 0.00 0.00 0.00 36 1005.5
20260507232045 15 317 4.8 14.5 0.00 0.00 0.00 35 1005.4
20260507231542 15 292 9.7 16.1 0.00 0.00 0.00 35 1005.2
20260507231039 15 313 16.1 24.1 0.00 0.00 0.00 35 1005.2
20260507230536 15 315 8.0 22.5 0.00 0.00 0.00 34 1005.2
20260507230033 15 298 12.9 29.0 0.00 0.00 0.00 33 1005.3
20260507225527 16 283 17.7 38.6 0.00 0.00 0.00 32 1005.2
20260507225024 16 334 12.9 16.1 0.00 0.00 0.00 32 1005.1
20260507224520 16 295 9.7 25.7 0.00 0.00 0.00 33 1005.1
20260507224016 16 293 14.5 20.9 0.00 0.00 0.00 33 1004.9
20260507223513 16 291 9.7 29.0 0.00 0.00 0.00 31 1004.9
20260507223010 16 300 6.4 20.9 0.00 0.00 0.00 33 1004.9
20260507222507 16 314 16.1 22.5 0.00 0.00 0.00 36 1005.0
20260507222003 16 296 8.0 24.1 0.00 0.00 0.00 33 1004.8
20260507221500 17 283 12.9 22.5 0.00 0.00 0.00 33 1004.7
20260507220956 16 290 12.9 25.7 0.00 0.00 0.00 32 1004.5
20260507220454 17 306 4.8 17.7 0.00 0.00 0.00 34 1004.7
20260507215950 17 320 8.0 22.5 0.00 0.00 0.00 34 1004.6
20260507215447 17 303 16.1 33.8 0.00 0.00 0.00 34 1004.6
20260507214944 17 277 6.4 19.3 0.00 0.00 0.00 33 1004.6
20260507214442 17 278 14.5 20.9 0.00 0.00 0.00 33 1004.6
20260507213937 16 279 8.0 19.3 0.00 0.00 0.00 35 1004.5
20260507213434 17 324 8.0 17.7 0.00 0.00 0.00 37 1004.5
20260507212931 17 318 14.5 20.9 0.00 0.00 0.00 32 1004.3
20260507212426 17 288 8.0 24.1 0.00 0.00 0.00 33 1004.6
20260507211924 17 269 6.4 27.4 0.00 0.00 0.00 32 1004.6
20260507211421 17 312 16.1 24.1 0.00 0.00 0.00 32 1004.4
20260507210917 17 318 17.7 25.7 0.00 0.00 0.00 33 1004.4
20260507210414 17 282 14.5 41.8 0.00 0.00 0.00 32 1004.4
20260507205910 17 307 14.5 25.7 0.00 0.00 0.00 32 1004.5
20260507205409 17 350 3.2 16.1 0.00 0.00 0.00 33 1004.5
20260507204904 17 251 17.7 27.4 0.00 0.00 0.00 32 1004.3
20260507204401 17 290 14.5 37.0 0.00 0.00 0.00 31 1004.5
20260507203858 17 298 17.7 33.8 0.00 0.00 0.00 32 1004.5
20260507203356 17 264 17.7 32.2 0.00 0.00 0.00 34 1004.4
20260507202852 17 268 11.3 27.4 0.00 0.00 0.00 31 1004.3
20260507202349 17 291 17.7 24.1 0.00 0.00 0.00 32 1004.4
20260507201844 17 281 11.3 40.2 0.00 0.00 0.00 33 1004.5
20260507201340 17 279 20.9 22.5 0.00 0.00 0.00 33 1004.3
20260507200837 17 317 16.1 19.3 0.00 0.00 0.00 34 1004.4
20260507200333 17 283 14.5 20.9 0.00 0.00 0.00 35 1004.5
20260507195829 17 304 6.4 25.7 0.00 0.00 0.00 34 1004.7
20260507195326 17 308 9.7 30.6 0.00 0.00 0.00 35 1004.6
20260507194824 18 261 22.5 24.1 0.00 0.00 0.00 35 1004.5
20260507194320 17 0 8.0 19.3 0.00 0.00 0.00 35 1004.6
20260507193816 17 0 8.0 19.3 0.00 0.00 0.00 35 1004.7
20260507193314 17 0 8.0 19.3 0.00 0.00 0.00 35 1004.7
20260507192809 17 0 8.0 19.3 0.00 0.00 0.00 35 1004.6
20260507192306 17 337 6.4 20.9 0.00 0.00 0.00 37 1004.9
20260507191802 17 318 12.9 27.4 0.00 0.00 0.00 38 1004.8
20260507191259 18 263 8.0 22.5 0.00 0.00 0.00 36 1004.8
20260507190756 18 321 9.7 17.7 0.00 0.00 0.00 37 1004.8
20260507190254 17 355 11.3 24.1 0.00 0.00 0.00 37 1004.9
20260507185752 18 308 22.5 24.1 0.00 0.00 0.00 38 1005.1
20260507185249 17 323 9.7 22.5 0.00 0.00 0.00 36 1005.0
20260507184746 17 328 6.4 24.1 0.00 0.00 0.00 38 1004.8
20260507184245 17 263 22.5 30.6 0.00 0.00 0.00 35 1005.1
20260507183741 17 282 14.5 37.0 0.00 0.00 0.00 36 1005.0
20260507183237 17 284 19.3 41.8 0.00 0.00 0.00 34 1005.1
20260507182735 17 252 11.3 29.0 0.00 0.00 0.00 34 1005.3
20260507182230 17 284 22.5 25.7 0.00 0.00 0.00 35 1005.2
20260507181727 17 261 11.3 27.4 0.00 0.00 0.00 36 1005.3
20260507181224 17 282 9.7 24.1 0.00 0.00 0.00 36 1005.3
20260507180720 17 272 12.9 30.6 0.00 0.00 0.00 38 1005.6
20260507180217 17 317 6.4 16.1 0.00 0.00 0.00 38 1005.3
20260507175713 17 317 6.4 16.1 0.00 0.00 0.00 38 1005.3
20260507175210 16 305 14.5 20.9 0.00 0.00 0.00 38 1005.3
20260507174707 17 278 4.8 8.0 0.00 0.00 0.00 39 1005.3
20260507174205 17 278 4.8 8.0 0.00 0.00 0.00 39 1005.2
20260507173702 17 325 6.4 17.7 0.00 0.00 0.00 39 1005.3
20260507173159 16 296 17.7 25.7 0.00 0.00 0.00 38 1005.4
20260507172656 16 244 19.3 19.3 0.00 0.00 0.00 49 1005.7
20260507172153 16 244 19.3 19.3 0.00 0.00 0.00 49 1005.7
20260507171652 17 278 12.9 24.1 0.00 0.00 0.00 45 1005.6
20260507171150 16 267 19.3 32.2 0.00 0.00 0.00 45 1005.6
20260507170647 16 267 19.3 32.2 0.00 0.00 0.00 45 1005.8
20260507170144 16 295 12.9 24.1 0.00 0.00 0.00 47 1005.7
20260507165639 16 340 14.5 24.1 0.00 0.00 0.00 51 1005.7
20260507165136 16 315 9.7 22.5 0.00 0.00 0.00 50 1005.9
20260507164632 16 300 12.9 24.1 0.00 0.00 0.00 51 1006.0
20260507164130 15 298 17.7 24.1 0.00 0.00 0.00 56 1006.1
20260507163626 15 301 17.7 27.4 0.00 0.00 0.00 56 1005.8
20260507163124 15 298 14.5 27.4 0.00 0.00 0.00 55 1005.9
20260507162620 16 296 14.5 22.5 0.00 0.00 0.00 53 1006.1
20260507162117 15 257 9.7 17.7 0.00 0.00 0.00 55 1006.1
20260507161613 15 273 11.3 24.1 0.00 0.00 0.00 53 1006.4
20260507161110 16 296 11.3 20.9 0.00 0.00 0.00 53 1006.4
20260507160606 15 259 20.9 24.1 0.00 0.00 0.00 53 1006.4
20260507155557 15 293 12.9 20.9 0.00 0.00 0.00 53 1006.5
20260507155055 15 321 17.7 20.9 0.00 0.00 0.00 54 1006.6
20260507154552 15 309 9.7 33.8 0.00 0.00 0.00 51 1006.6
20260507154049 16 294 22.5 25.7 0.00 0.00 0.00 48 1006.5
20260507153545 15 307 9.7 20.9 0.00 0.00 0.00 49 1006.6
20260507153042 15 235 17.7 20.9 0.00 0.00 0.00 48 1006.4
20260507152538 16 242 6.4 24.1 0.00 0.00 0.00 47 1006.8
20260507152034 15 280 6.4 29.0 0.00 0.00 0.00 51 1007.1
20260507151530 15 293 16.1 30.6 0.00 0.00 0.00 51 1006.8
20260507151027 16 303 6.4 22.5 0.00 0.00 0.00 51 1007.1
20260507150525 15 300 6.4 22.5 0.00 0.00 0.00 54 1006.9
20260507150021 15 308 19.3 19.3 0.00 0.00 0.00 51 1007.2
20260507145516 15 288 16.1 25.7 0.00 0.00 0.00 50 1007.1
20260507145014 15 213 11.3 14.5 0.00 0.00 0.00 55 1007.1
20260507144510 15 288 9.7 20.9 0.00 0.00 0.00 54 1007.1
20260507144008 15 297 4.8 17.7 0.00 0.00 0.00 55 1007.0
20260507143505 15 271 17.7 24.1 0.00 0.00 0.00 55 1007.1
20260507143002 15 284 30.6 30.6 0.00 0.00 0.00 55 1007.3
20260507142457 15 296 16.1 20.9 0.00 0.00 0.00 55 1007.3
20260507141955 15 316 4.8 12.9 0.00 0.00 0.00 59 1007.3
20260507141450 15 316 4.8 12.9 0.00 0.00 0.00 59 1007.1
20260507140947 14 307 4.8 11.3 0.00 0.00 0.00 63 1007.2
20260507140444 15 10 3.2 12.9 0.00 0.00 0.00 59 1007.2
20260507135942 14 13 6.4 14.5 0.00 0.00 0.00 61 1007.3
20260507135438 13 20 6.4 11.3 0.00 0.00 0.00 61 1007.4
20260507134936 13 331 11.3 14.5 0.00 0.00 0.00 61 1007.3
20260507134432 13 315 8.0 11.3 0.00 0.00 0.00 62 1007.3
20260507133928 13 342 9.7 11.3 0.00 0.00 0.00 62 1007.3
20260507133425 13 350 4.8 11.3 0.00 0.00 0.00 63 1007.4
20260507132923 13 337 8.0 12.9 0.00 0.00 0.00 64 1007.9
20260507132419 13 298 9.7 16.1 0.00 0.00 0.00 63 1007.8
20260507131915 13 293 12.9 16.1 0.00 0.00 0.00 64 1007.7
20260507131413 13 299 4.8 14.5 0.00 0.00 0.00 65 1007.8
20260507130910 12 286 9.7 20.9 0.00 0.00 0.00 65 1007.9
20260507130406 13 336 6.4 19.3 0.00 0.00 0.00 64 1007.8
20260507125905 12 320 6.4 11.3 0.00 0.00 0.00 67 1007.9
20260507125403 12 305 4.8 16.1 0.00 0.00 0.00 68 1007.9
20260507124900 12 298 14.5 17.7 0.00 0.00 0.00 69 1007.9
20260507124355 12 303 8.0 12.9 0.00 0.00 0.00 70 1007.7
20260507123855 12 344 12.9 20.9 0.00 0.00 0.00 71 1007.7
20260507123351 11 321 8.0 17.7 0.00 0.00 0.00 72 1007.8
20260507122847 11 302 9.7 14.5 0.00 0.00 0.00 72 1007.8
20260507122343 11 310 6.4 25.7 0.00 0.00 0.00 72 1007.9
20260507121840 11 327 8.0 16.1 0.00 0.00 0.00 74 1008.1
20260507121335 11 295 11.3 17.7 0.00 0.00 0.00 74 1008.1
20260507120832 11 302 6.4 12.9 0.00 0.00 0.00 75 1008.5
20260507120328 10 318 11.3 29.0 0.00 0.00 0.00 76 1008.0
20260507115825 10 324 9.7 19.3 0.00 0.00 0.00 78 1007.7
20260507115320 10 325 6.4 20.9 0.00 0.00 0.00 78 1007.9
20260507114816 10 285 16.1 24.1 0.00 0.00 0.00 79 1007.7
20260507114314 10 303 8.0 20.9 0.00 0.00 0.00 81 1007.8
20260507113811 10 316 8.0 22.5 0.00 0.00 0.00 81 1007.8
20260507113308 9 322 6.4 16.1 0.00 0.00 0.00 82 1007.6
20260507112806 9 308 6.4 17.7 0.00 0.00 0.00 82 1007.5
20260507112306 9 333 8.0 20.9 0.00 0.00 0.00 82 1007.3
20260507111800 9 304 8.0 24.1 0.00 0.00 0.00 82 1007.4
20260507111256 9 322 8.0 20.9 0.00 0.00 0.00 83 1007.8
20260507110752 9 331 4.8 17.7 0.00 0.00 0.00 83 1007.7
20260507110249 9 349 4.8 12.9 0.00 0.00 0.00 83 1008.0
20260507105746 9 316 3.2 16.1 0.00 0.00 0.00 84 1007.7
20260507105242 9 282 8.0 12.9 0.00 0.00 0.00 85 1007.5
20260507104739 9 326 8.0 19.3 0.00 0.00 0.00 85 1007.3
20260507104236 8 329 3.2 9.7 0.00 0.00 0.00 85 1007.1
20260507103732 9 331 4.8 9.7 0.00 0.00 0.00 85 1007.4
20260507103228 9 316 12.9 22.5 0.00 0.00 0.00 85 1006.9
20260507102725 8 301 14.5 16.1 0.00 0.00 0.00 86 1007.1
20260507102221 9 309 4.8 16.1 0.00 0.00 0.00 86 1007.2
20260507101717 9 323 8.0 17.7 0.00 0.00 0.00 86 1007.5
20260507101213 9 341 11.3 22.5 0.00 0.00 0.00 86 1007.1
20260507100710 8 344 6.4 17.7 0.00 0.00 0.00 86 1006.9
20260507100209 8 340 8.0 8.0 0.00 0.00 0.00 87 1007.2
20260507095707 9 298 6.4 22.5 0.00 0.00 0.00 86 1007.4
20260507095203 9 317 6.4 24.1 0.00 0.00 0.00 86 1007.2
20260507094659 9 305 12.9 17.7 0.00 0.00 0.00 86 1007.0
20260507094156 9 314 12.9 20.9 0.00 0.00 0.00 87 1006.9
20260507093653 9 306 4.8 24.1 0.00 0.00 0.00 87 1006.9
20260507093152 9 333 0.0 11.3 0.00 0.00 0.00 87 1007.2
20260507092649 9 297 11.3 19.3 0.00 0.00 0.00 86 1007.2
20260507092145 9 284 6.4 20.9 0.00 0.00 0.00 86 1007.3
20260507091642 9 292 4.8 17.7 0.00 0.00 0.00 86 1007.3
20260507091138 9 289 6.4 17.7 0.00 0.00 0.00 86 1007.1
20260507090633 9 281 8.0 20.9 0.00 0.00 0.00 85 1007.0
20260507090131 9 315 9.7 19.3 0.00 0.00 0.00 85 1006.7
20260507085628 9 281 6.4 22.5 0.00 0.00 0.00 85 1006.6
20260507085124 10 283 8.0 19.3 0.00 0.00 0.00 86 1006.4
20260507084621 10 279 6.4 22.5 0.00 0.00 0.00 85 1006.8
20260507084118 10 308 17.7 27.4 0.00 0.00 0.00 85 1006.6
20260507083615 10 324 6.4 17.7 0.00 0.00 0.00 86 1006.4
20260507083112 10 280 8.0 17.7 0.00 0.00 0.00 86 1006.5
20260507082607 10 325 6.4 20.9 0.00 0.00 0.00 86 1006.1
20260507082104 10 294 8.0 19.3 0.00 0.00 0.00 87 1006.3
20260507081600 9 297 14.5 16.1 0.00 0.00 0.00 88 1006.5
20260507081058 10 283 14.5 29.0 0.00 0.00 0.00 88 1006.6
20260507080553 10 272 17.7 30.6 0.00 0.00 0.00 87 1006.8
20260507080050 10 300 9.7 24.1 0.00 0.00 0.00 85 1006.4
20260507075545 10 301 16.1 40.2 0.00 0.00 0.00 84 1006.5
20260507075042 10 295 24.1 25.7 0.00 0.00 0.00 84 1006.3
20260507074539 10 310 14.5 24.1 0.00 0.00 0.00 84 1006.2
20260507074037 10 312 9.7 20.9 0.00 0.00 0.00 84 1006.4
20260507073533 10 294 14.5 27.4 0.00 0.00 0.00 84 1006.2
20260507073030 10 296 9.7 20.9 0.00 0.00 0.00 85 1006.1
20260507072527 10 304 11.3 30.6 0.00 0.00 0.00 85 1006.1
20260507072024 10 308 4.8 25.7 0.00 0.00 0.00 86 1006.2
20260507071522 10 333 17.7 20.9 0.00 0.00 0.00 87 1005.9
20260507071018 11 311 4.8 27.4 0.00 0.00 0.00 88 1005.9
20260507070515 11 293 9.7 19.3 0.00 0.00 0.00 89 1006.0
20260507070013 11 289 9.7 17.7 0.00 0.00 0.00 90 1005.9
20260507065508 11 295 6.4 14.5 0.00 0.00 0.00 91 1005.8
20260507065006 11 291 3.2 11.3 0.00 0.00 0.00 91 1005.8
20260507064504 11 304 8.0 16.1 0.00 0.00 0.00 91 1006.0
20260507064002 11 281 8.0 14.5 0.00 0.00 0.00 91 1005.6
20260507063458 11 288 9.7 14.5 0.00 0.00 0.00 91 1005.6
20260507062955 11 277 4.8 12.9 0.00 0.00 0.00 90 1005.5
20260507062452 11 294 3.2 12.9 0.00 0.00 0.00 90 1005.4
20260507061950 11 289 6.4 22.5 0.00 0.00 0.00 90 1005.8
20260507061448 11 284 6.4 17.7 0.00 0.00 0.00 90 1006.0
20260507060946 11 307 6.4 17.7 0.00 0.00 0.00 89 1005.7
20260507060442 11 281 4.8 19.3 0.00 0.00 0.00 89 1005.8
20260507055939 11 292 8.0 22.5 0.00 0.00 0.00 90 1005.8
20260507055434 11 288 12.9 14.5 0.00 0.00 0.00 90 1006.0
20260507054931 11 289 11.3 25.7 0.00 0.00 0.00 90 1006.2
20260507054427 11 314 4.8 16.1 0.00 0.00 0.00 90 1005.7
20260507053925 11 298 9.7 20.9 0.00 0.00 0.00 90 1005.6
20260507053422 11 296 8.0 19.3 0.00 0.00 0.00 90 1005.8
20260507052921 11 294 11.3 22.5 0.00 0.00 0.00 90 1005.7
20260507052418 11 315 9.7 19.3 0.00 0.00 0.00 90 1005.6
20260507051914 11 317 6.4 25.7 0.00 0.00 0.00 90 1005.9
20260507051412 12 293 6.4 14.5 0.00 0.00 0.00 91 1006.3
20260507050909 12 294 4.8 25.7 0.00 0.00 0.00 91 1006.0
20260507050405 12 298 8.0 16.1 0.00 0.00 0.00 91 1006.1
20260507045902 12 282 11.3 14.5 0.00 0.00 0.00 92 1005.9
20260507045359 12 285 9.7 25.7 0.00 0.00 0.00 92 1005.8
20260507044856 12 285 14.5 22.5 0.00 0.00 0.00 92 1005.8
20260507044353 12 264 8.0 27.4 0.00 0.00 0.00 92 1005.6
20260507043849 12 293 24.1 24.1 0.00 0.00 0.00 93 1005.6
20260507043346 12 318 11.3 25.7 0.00 0.00 0.00 94 1005.4
20260507042842 13 334 9.7 17.7 0.00 0.00 0.00 94 1005.6
20260507042338 13 311 14.5 27.4 0.00 0.00 0.00 94 1006.0
20260507041835 13 299 11.3 24.1 0.00 0.00 0.00 95 1005.9
20260507041331 14 318 6.4 11.3 0.00 0.00 0.00 96 1005.6
20260507040828 15 312 8.0 11.3 0.00 0.00 0.00 97 1005.7
20260507040324 15 271 6.4 19.3 0.00 0.00 0.00 97 1005.4
20260507035820 15 292 3.2 11.3 0.00 0.00 0.00 97 1005.3
20260507035316 15 268 8.0 17.7 0.00 0.00 0.00 97 1005.4
20260507034814 15 264 14.5 17.7 0.00 0.00 0.00 98 1005.3
20260507034310 15 274 6.4 17.7 0.00 0.00 0.00 98 1005.3
20260507033809 15 265 11.3 22.5 0.00 0.00 0.00 98 1005.0
20260507033306 15 255 11.3 12.9 0.00 0.00 0.00 97 1004.9
20260507032803 15 243 8.0 17.7 0.00 0.00 0.00 97 1004.7
20260507032259 15 250 6.4 17.7 0.00 0.00 0.00 97 1004.8
20260507031756 15 251 8.0 17.7 0.00 0.00 0.00 97 1004.6
20260507031253 15 239 4.8 19.3 0.00 0.00 0.00 97 1004.5
20260507030749 15 247 14.5 17.7 0.00 0.00 0.00 97 1004.5
20260507030247 15 211 9.7 17.7 0.00 0.00 0.00 97 1004.5
20260507025744 15 196 8.0 20.9 0.00 0.00 0.00 97 1004.6
20260507025241 15 246 9.7 17.7 0.00 0.00 0.00 97 1004.6
20260507024739 15 212 14.5 27.4 0.00 0.00 0.00 97 1004.8
20260507024236 15 252 6.4 11.3 0.00 0.00 0.00 97 1004.8
20260507023731 15 199 4.8 14.5 0.00 0.00 0.00 97 1004.9
20260507023229 15 210 8.0 11.3 0.00 0.00 0.00 97 1004.5
20260507022726 15 233 8.0 19.3 0.00 0.00 0.00 97 1004.8
20260507022222 15 222 12.9 14.5 0.00 0.00 0.00 97 1004.5
20260507021718 15 191 8.0 9.7 0.00 0.00 0.00 97 1004.6
20260507021214 15 207 4.8 9.7 0.00 0.00 0.00 97 1004.6
20260507020712 15 232 11.3 16.1 0.00 0.00 0.00 97 1004.6
20260507020208 15 230 4.8 17.7 0.00 0.00 0.00 97 1005.0
20260507015706 15 226 8.0 17.7 0.00 0.00 0.00 97 1005.0
20260507015203 15 204 8.0 19.3 0.00 0.00 0.00 97 1004.9
20260507014700 15 217 8.0 17.7 0.00 0.00 0.00 97 1005.0
20260507014156 15 224 11.3 24.1 0.00 0.00 0.00 97 1005.0
20260507013653 15 212 14.5 17.7 0.00 0.00 0.00 97 1005.0
20260507013150 15 243 14.5 16.1 0.00 0.00 0.00 97 1005.1
20260507012648 15 208 6.4 20.9 0.00 0.00 0.00 97 1004.9
20260507012143 14 215 9.7 20.9 0.00 0.00 0.00 97 1005.0
20260507011641 14 207 8.0 17.7 0.00 0.00 0.00 98 1005.1
20260507011137 14 196 8.0 16.1 0.00 0.00 0.00 98 1005.1
20260507010632 14 198 4.8 22.5 0.00 0.00 0.00 98 1004.7
20260507010128 14 218 11.3 30.6 0.00 0.00 0.00 98 1005.0
20260507005626 14 208 11.3 30.6 0.00 0.00 0.00 98 1005.0
20260507005121 14 224 11.3 19.3 0.00 0.00 0.00 98 1005.0
20260507004619 14 210 9.7 17.7 0.00 0.00 0.00 98 1005.0
20260507004116 14 196 9.7 16.1 0.00 0.00 0.00 98 1005.0
20260507003612 14 180 8.0 16.1 0.00 0.00 0.00 98 1005.0
20260507003107 14 205 20.9 22.5 0.00 0.00 0.00 98 1005.1
20260507002604 14 187 9.7 19.3 0.00 0.00 0.00 98 1005.1
20260507002059 14 193 9.7 22.5 0.00 0.00 0.00 98 1004.8
20260507001557 14 190 12.9 16.1 0.00 0.00 0.00 98 1004.7
20260507001054 14 212 16.1 17.7 0.00 0.00 0.00 98 1004.7
20260507000550 14 178 8.0 16.1 0.00 0.00 0.00 98 1004.8
20260507000046 14 193 14.5 19.3 0.00 0.00 0.00 98 1004.7
20260506235543 14 191 17.7 17.7 0.00 0.00 0.00 97 1004.8
20260506235038 14 195 22.5 22.5 0.00 0.00 0.00 97 1004.5
20260506234536 15 180 14.5 16.1 0.00 0.00 0.00 97 1004.7
20260506234033 15 198 8.0 24.1 0.00 0.00 0.00 97 1004.9
20260506233530 15 176 9.7 19.3 0.00 0.00 0.00 97 1004.7
20260506233027 15 196 6.4 20.9 0.00 0.00 0.00 96 1004.8